Weather History for Rome, NY

Change the Weather History Date:

Monday, June 24, 2013

  Actual Average Record
Temperature  
Mean Temperature 77 °F -  
Max Temperature 89 °F 76 °F 89 °F (2013)
Min Temperature 66 °F 53 °F 45 °F (1988)
Cooling Degree Days 12    
Growing Degree Days 27 (Base 50)    
Moisture  
Dew Point 66 °F    
Average Humidity 78    
Maximum Humidity 93    
Minimum Humidity 53    
Precipitation  
Precipitation 0.03 in - - ()
Sea Level Pressure  
Sea Level Pressure 30.00 in    
Wind  
Wind Speed 4 mph (NNE)    
Max Wind Speed 24 mph    
Max Gust Speed 30 mph    
Visibility 10 miles    
Events Rain    
Averages and records for this station are not official NWS values.
T = Trace of Precipitation, MM = Missing Value Source: NWS Daily Summary

Daily Weather History Graph

Daily Weather History Graph

Search for Another Location

Airport:

Trip Planner

Search our weather history database for the weather conditions in past years. The results will help you decide how hot, cold, wet, or windy it might be!

Date:

Astronomy

Jun. 24, 2013 Rise Set
Actual Time 5:22 AM EDT 8:45 PM EDT
Civil Twilight 4:46 AM EDT 9:21 PM EDT
Nautical Twilight 4:00 AM EDT 10:07 PM EDT
Astronomical Twilight 3:02 AM EDT 11:05 PM EDT
Moon 9:42 PM EDT (6/24) 6:50 AM EDT (6/24)
Length of Visible Light 16h 34m
Length of Day
15h 23m
Full, 98% of the Moon is Illuminated
Jun 24
Full
Jun 30
Last Quarter
Jul 8
New
Jul 15
First Quarter
Jul 22
Full

Hourly Weather History & Observations

Time (EDT) Temp. Heat Index Dew Point Humidity Pressure Visibility Wind Dir Wind Speed Gust Speed Precip Events Conditions
12:53 AM 68.0 °F - 66.0 °F 93% 30.03 in 10.0 mi Calm Calm - N/A   Clear
1:53 AM 68.0 °F - 64.9 °F 90% 30.02 in 10.0 mi Calm Calm - N/A   Clear
2:53 AM 66.9 °F - 64.9 °F 93% 30.02 in 10.0 mi Calm Calm - N/A   Clear
3:53 AM 66.9 °F - 64.9 °F 93% 30.02 in 10.0 mi Calm Calm - N/A   Scattered Clouds
4:53 AM 66.9 °F - 64.9 °F 93% 30.03 in 10.0 mi Calm Calm - N/A   Mostly Cloudy
5:53 AM 66.0 °F - 64.0 °F 93% 30.04 in 9.0 mi Calm Calm - N/A   Clear
6:53 AM 68.0 °F - 64.9 °F 90% 30.05 in 10.0 mi Calm Calm - N/A   Scattered Clouds
7:53 AM 69.1 °F - 66.0 °F 90% 30.05 in 10.0 mi ESE 3.5 mph - N/A   Clear
8:53 AM 73.0 °F - 66.9 °F 81% 30.04 in 10.0 mi Calm Calm - N/A   Clear
9:53 AM 78.1 °F - 66.9 °F 68% 30.04 in 10.0 mi Variable 3.5 mph - N/A   Clear
10:53 AM 82.0 °F 85.5 °F 69.1 °F 65% 30.03 in 10.0 mi Variable 4.6 mph - N/A   Clear
11:53 AM 84.0 °F 87.8 °F 69.1 °F 61% 30.02 in 10.0 mi West 8.1 mph - N/A   Clear
12:53 PM 86.0 °F 89.4 °F 68.0 °F 55% 30.01 in 10.0 mi West 12.7 mph - N/A   Clear
1:53 PM 87.1 °F 91.3 °F 69.1 °F 55% 29.99 in 10.0 mi West 11.5 mph 20.7 mph N/A   Clear
2:53 PM 88.0 °F 92.9 °F 70.0 °F 55% 29.95 in 10.0 mi West 11.5 mph - N/A   Partly Cloudy
3:26 PM 86.0 °F 88.8 °F 66.9 °F 53% 29.96 in 10.0 mi NW 24.2 mph 29.9 mph N/A   Partly Cloudy
3:36 PM 80.1 °F 81.2 °F 62.1 °F 54% 29.97 in 10.0 mi North 16.1 mph - N/A   Mostly Cloudy
3:44 PM 78.1 °F - 63.0 °F 60% 29.97 in 10.0 mi North 13.8 mph - N/A   Mostly Cloudy
3:53 PM 77.0 °F - 64.0 °F 64% 29.96 in 10.0 mi NW 10.4 mph - N/A   Mostly Cloudy
4:53 PM 73.0 °F - 64.0 °F 73% 29.97 in 10.0 mi Variable 3.5 mph - 0.00 in Rain Light Rain
5:53 PM 68.0 °F - 64.9 °F 90% 29.99 in 10.0 mi East 6.9 mph - 0.03 in Rain Light Rain
6:53 PM 70.0 °F - 66.0 °F 87% 29.97 in 10.0 mi SE 8.1 mph - 0.00 in   Partly Cloudy
7:53 PM 70.0 °F - 64.9 °F 84% 29.95 in 10.0 mi ESE 5.8 mph - N/A   Clear
8:53 PM 68.0 °F - 64.9 °F 90% 29.97 in 10.0 mi Calm Calm - N/A   Clear
9:53 PM 66.9 °F - 64.9 °F 93% 29.97 in 10.0 mi ENE 5.8 mph - N/A   Clear
10:53 PM 66.0 °F - 64.0 °F 93% 29.98 in 10.0 mi ESE 3.5 mph - N/A   Clear
11:53 PM 66.9 °F - 64.0 °F 90% 29.98 in 10.0 mi East 5.8 mph - N/A   Clear